Date,TemperatureHighF,TemperatureAvgF,TemperatureLowF,DewpointHighF,DewpointAvgF,DewpointLowF,HumidityHigh,HumidityAvg,HumidityLow,PressureMaxIn,PressureMinIn,WindSpeedMaxMPH,WindSpeedAvgMPH,GustSpeedMaxMPH,PrecipitationSumIn
2013-1-1,48.5,44.9,35.2,48.5,40.3,24.1,100,85,56,30.03,29.85,15,1,15,0.23
2013-1-2,47.5,42.1,32.8,47.5,39.7,25.9,100,91,78,30.12,29.85,18,1,18,0.18
2013-1-3,40.3,37.0,30.6,36.1,33.2,24.8,100,87,75,30.19,30.07,7,0,8,0.00
2013-1-4,48.6,36.9,28.8,30.5,25.3,9.3,95,65,42,30.25,30.13,20,4,20,0.00
2013-1-5,49.1,37.4,26.9,33.5,26.1,20.2,90,65,44,30.32,30.14,10,0,10,0.00
2013-1-6,50.9,42.6,36.1,40.0,36.8,26.2,98,81,60,30.14,29.98,10,1,10,0.00
2013-1-7,50.1,39.4,31.1,34.5,32.1,19.0,96,76,52,30.36,30.12,13,1,13,0.00
2013-1-8,53.6,40.9,27.5,45.2,37.1,26.6,100,87,64,30.39,30.29,10,0,10,0.00
2013-1-9,61.9,50.4,39.2,54.3,47.3,38.1,100,90,71,30.38,30.30,12,1,12,0.00
2013-1-10,58.9,51.2,43.3,51.9,41.6,27.1,100,73,42,30.47,30.35,10,0,10,0.00
2013-1-11,43.5,41.6,39.9,43.5,41.6,39.8,100,100,100,30.28,30.12,4,0,4,0.15
2013-1-12,63.2,55.9,48.9,61.8,55.7,47.2,100,99,95,30.11,30.04,8,0,8,0.00
2013-1-13,71.0,60.0,50.7,63.7,57.2,45.0,100,91,68,30.07,29.98,24,3,24,0.00
2013-1-14,63.2,58.2,47.9,62.5,58.1,47.8,100,100,95,30.12,30.01,17,2,17,1.02
2013-1-15,49.8,40.1,36.2,49.8,40.1,28.5,100,100,100,30.17,30.01,17,1,17,0.16
2013-1-16,48.2,43.2,37.3,48.0,43.2,37.3,100,100,100,30.02,29.89,7,0,7,0.43
2013-1-17,48.4,40.6,28.4,48.3,40.6,27.6,100,100,100,30.10,29.84,20,2,20,2.19
2013-1-18,40.9,32.2,27.1,35.2,30.3,23.2,100,93,67,30.44,30.09,11,1,11,0.01
2013-1-19,50.4,38.7,28.3,33.4,29.6,22.0,100,72,46,30.41,30.07,12,2,13,0.00
2013-1-20,55.2,45.0,31.5,34.6,31.2,23.0,82,60,36,30.07,29.94,18,3,18,0.00
2013-1-21,53.5,47.3,39.0,35.4,27.1,20.1,76,46,36,30.01,29.80,23,5,23,0.00
2013-1-22,39.8,29.6,25.2,20.8,7.7,-0.4,54,40,28,30.18,29.90,20,4,20,0.00
2013-1-23,40.1,33.6,23.2,20.8,17.6,6.7,64,52,44,30.19,29.95,18,2,18,0.00
2013-1-24,36.8,29.2,23.8,29.9,15.9,6.4,87,59,40,30.42,29.88,20,3,20,0.00
2013-1-25,24.0,23.7,23.3,9.6,9.1,8.6,54,53,52,30.42,30.40,6,1,6,0.00
2013-1-27,39.4,35.4,28.3,31.5,29.4,23.1,98,79,70,30.50,30.41,11,1,11,0.00
2013-1-28,47.4,46.5,45.8,46.6,45.5,44.4,100,96,90,30.20,30.15,11,2,11,0.03
2013-1-29,68.7,55.8,44.5,61.0,51.7,43.3,100,88,61,30.16,29.98,16,3,16,0.00
2013-1-30,69.1,64.1,52.7,66.2,62.2,49.7,100,94,72,29.99,29.34,38,10,38,0.61
2013-1-31,55.7,43.9,37.5,55.1,32.9,20.2,100,67,44,29.90,29.39,30,9,30,0.03
2013-2-3,46.1,41.1,35.1,33.6,28.6,25.1,87,61,48,29.93,29.77,24,4,24,0.00
2013-2-4,46.1,36.2,27.6,31.2,25.0,9.8,90,65,45,30.07,29.91,13,2,13,0.00
2013-2-5,56.1,44.9,37.7,36.4,33.2,28.6,80,65,43,29.92,29.82,14,1,14,0.00
2013-2-6,55.9,44.2,33.7,37.5,32.6,22.6,99,69,32,30.11,29.90,14,2,14,0.00
2013-2-7,37.4,37.1,36.8,37.3,37.1,36.8,100,100,100,30.07,30.05,8,1,8,0.33
2013-2-9,44.4,44.3,44.3,21.3,21.3,20.7,40,40,40,30.23,30.23,0,0,0,0.00
2013-2-11,53.3,46.9,42.2,53.0,46.9,40.2,100,100,100,30.03,29.87,15,1,15,0.04
2013-2-12,51.2,49.7,48.2,32.7,31.4,30.4,55,49,47,29.92,29.86,3,0,3,0.00
2013-2-15,52.7,47.3,40.1,41.0,36.0,30.4,84,66,45,29.92,29.87,17,4,17,0.00
2013-2-16,41.3,32.7,27.2,35.8,29.9,18.3,100,90,65,29.91,29.76,16,2,16,0.04
2013-2-17,34.5,27.7,24.7,19.7,13.1,6.7,73,55,36,30.18,29.86,28,6,28,0.00
2013-2-18,50.7,37.0,22.7,29.0,21.7,10.1,90,56,36,30.30,30.12,16,3,16,0.00
2013-2-19,40.2,37.4,32.1,37.5,30.8,27.9,100,78,64,30.14,29.93,16,4,16,0.21
2013-2-20,50.4,42.2,27.8,20.5,16.5,10.6,57,36,24,30.06,29.93,19,4,19,0.00
2013-2-21,51.2,38.9,25.2,25.0,20.5,14.5,86,50,29,30.20,30.04,12,1,12,0.00
2013-2-22,43.7,32.2,28.5,35.2,31.0,24.7,100,96,47,30.25,30.05,11,0,12,0.23
2013-2-23,43.1,37.1,30.2,43.1,37.1,30.0,100,100,100,30.07,29.75,8,0,12,0.11
2013-2-24,58.6,46.8,39.4,44.1,34.4,17.2,100,68,33,29.97,29.73,17,3,17,0.08
2013-2-25,42.5,35.8,29.0,29.6,26.7,22.9,86,70,55,30.15,29.97,14,2,14,0.00
2013-2-26,40.7,34.8,28.5,40.6,33.7,24.6,100,96,75,30.07,29.52,13,1,13,0.89
2013-2-27,53.0,45.2,38.7,44.1,39.0,31.5,100,81,52,29.72,29.56,17,3,17,0.01
2013-2-28,45.8,40.9,35.4,43.8,32.5,21.6,98,74,51,29.79,29.63,22,5,22,0.00
2013-3-1,43.0,39.6,29.3,33.3,31.0,21.7,81,71,60,29.84,29.77,14,3,16,0.00
2013-3-2,43.4,34.1,27.0,31.2,26.6,18.9,100,75,54,29.86,29.74,15,2,15,0.00
2013-3-3,41.2,31.5,26.2,24.9,20.5,11.9,79,64,48,29.91,29.79,20,5,20,0.00
2013-3-4,49.6,36.8,21.3,24.3,18.3,12.4,80,50,25,30.04,29.90,18,3,18,0.00
2013-3-5,45.9,41.3,33.7,44.3,34.4,20.5,100,79,47,29.98,29.51,20,1,20,0.37
2013-3-6,44.4,37.6,29.0,39.5,31.3,23.1,100,79,56,30.00,29.49,32,8,32,0.05
2013-3-7,49.1,39.7,31.8,32.7,30.5,22.9,85,70,51,30.19,30.00,19,6,19,0.00
2013-3-8,50.9,40.1,28.0,30.5,26.8,15.5,90,62,38,30.24,30.11,22,5,22,0.00
2013-3-9,60.4,43.9,28.8,35.2,30.0,22.0,92,61,38,30.28,30.18,11,1,11,0.00
2013-3-10,65.5,51.0,32.5,36.9,31.9,19.1,76,50,30,30.24,30.13,13,2,13,0.00
2013-3-11,64.8,53.6,43.1,55.7,42.8,24.6,100,68,40,30.15,29.83,21,4,21,0.03
2013-3-12,63.3,53.7,43.6,55.4,46.7,27.5,100,80,38,29.91,29.67,20,5,21,0.92
2013-3-13,49.7,42.5,32.6,37.3,29.3,19.0,96,62,36,30.08,29.90,29,5,29,0.00
2013-3-14,49.2,37.3,26.8,24.2,19.8,14.4,69,51,32,30.18,30.06,19,4,29,0.00
2013-3-15,59.0,45.8,31.4,36.6,27.3,19.2,62,49,38,30.10,29.82,22,4,22,0.00
2013-3-16,74.3,60.8,48.9,57.6,44.4,33.7,78,57,35,29.82,29.60,24,5,24,0.01
2013-3-17,64.1,47.9,39.0,54.7,45.4,38.8,100,92,71,30.10,29.79,18,4,24,0.00
2013-3-18,39.9,38.0,35.8,39.8,38.0,35.3,100,100,100,30.12,29.78,14,1,18,0.11
2013-3-19,61.4,46.4,36.8,44.1,30.0,13.0,100,63,23,29.97,29.75,29,4,29,0.00
2013-3-20,51.4,44.9,37.8,28.8,16.8,9.8,49,32,24,30.04,29.72,19,4,29,0.00
2013-3-21,46.2,33.7,27.4,30.8,17.5,6.4,73,52,38,29.91,29.69,22,6,29,0.00
2013-3-22,48.7,36.2,22.6,23.5,17.7,6.7,79,49,31,30.00,29.89,16,2,29,0.00
2013-3-23,52.9,44.1,33.1,35.6,27.3,13.7,76,52,38,29.99,29.83,10,0,10,0.00
2013-3-24,44.7,37.6,30.9,40.0,35.3,30.1,100,92,65,29.86,29.48,18,2,18,0.69
2013-3-25,44.4,36.5,28.8,38.3,29.3,21.8,100,78,51,29.76,29.48,28,4,28,0.01
2013-3-26,45.4,39.0,29.7,30.9,28.9,22.5,82,68,52,30.06,29.75,20,4,28,0.00
2013-3-27,47.0,38.7,28.1,30.9,26.6,19.7,88,64,42,30.16,30.05,23,6,23,0.00
2013-3-28,49.7,39.5,27.9,30.7,25.0,19.8,83,58,37,30.22,30.10,20,4,23,0.00
2013-3-29,54.6,43.2,27.9,33.2,26.0,20.0,89,54,30,30.26,30.10,17,2,20,0.00
2013-3-30,63.4,50.4,38.6,40.3,33.7,23.2,93,56,33,30.17,30.01,14,1,17,0.00
2013-3-31,63.9,52.8,48.0,58.1,50.2,38.6,100,91,64,30.02,29.75,17,2,19,0.50
2013-4-1,65.6,55.5,45.8,52.6,44.1,31.8,100,70,38,29.93,29.77,24,4,24,0.01
2013-4-2,55.1,46.6,34.3,38.7,28.6,17.0,88,53,27,30.10,29.92,17,3,24,0.00
2013-4-3,53.7,45.3,29.5,25.4,22.0,16.6,76,41,27,30.24,30.08,14,2,17,0.00
2013-4-4,47.1,39.1,31.9,38.9,28.7,17.8,100,70,37,30.28,29.88,20,2,20,0.81
2013-4-5,63.1,46.9,32.4,48.3,38.2,22.6,100,77,30,29.97,29.83,15,2,20,0.01
2013-4-6,62.6,50.6,39.9,38.4,32.9,17.4,93,53,31,30.20,29.97,14,1,15,0.00
2013-4-7,67.8,56.0,42.1,48.8,41.8,30.3,100,62,38,30.19,30.05,20,4,20,0.00
2013-4-8,74.8,63.3,49.4,58.8,51.0,30.5,100,67,42,30.11,30.00,21,4,21,0.00
2013-4-9,80.3,69.3,53.7,59.3,54.0,42.7,97,62,34,30.14,30.02,17,3,21,0.00
2013-4-10,80.2,70.1,55.7,61.4,57.5,46.1,87,66,41,30.06,29.99,17,3,17,0.00
2013-4-11,78.3,72.2,57.7,67.2,61.0,49.0,98,70,48,29.93,29.73,20,6,20,0.00
2013-4-12,78.9,69.0,50.0,68.3,56.9,25.6,100,70,38,29.74,29.57,27,6,27,0.34
2013-4-13,73.3,59.9,46.2,44.7,39.0,21.1,91,49,30,29.97,29.74,16,2,27,0.00
2013-4-14,76.2,63.3,48.6,53.8,38.3,25.4,78,42,23,30.05,29.97,15,2,16,0.00
2013-4-15,67.3,57.7,51.7,60.7,55.9,51.0,100,94,73,30.16,29.97,14,1,15,0.16
2013-4-16,75.3,63.4,51.6,64.0,58.5,43.9,100,85,58,30.25,30.14,11,1,14,0.00
2013-4-17,78.0,66.2,51.0,63.9,58.8,46.2,100,79,47,30.18,30.08,9,1,11,0.00
2013-4-18,78.1,70.0,60.5,65.6,61.0,45.0,97,75,44,30.14,29.98,16,3,16,0.00
2013-4-19,76.0,66.9,54.5,71.1,65.5,51.0,100,95,80,29.98,29.67,29,5,29,0.37
2013-4-20,62.9,51.0,43.4,53.0,36.9,20.9,96,61,34,30.21,29.81,21,3,29,0.00
2013-4-21,56.4,47.3,36.1,43.3,37.1,25.0,100,70,46,30.44,30.21,18,2,18,0.00
2013-4-22,60.4,48.0,35.2,42.6,35.9,22.3,100,67,33,30.39,30.20,15,3,15,0.00
2013-4-23,68.2,54.5,44.9,54.6,47.7,40.4,99,80,52,30.23,30.06,12,1,12,0.00
2013-4-24,72.3,61.0,49.6,58.8,54.2,48.2,100,81,51,30.08,29.92,21,3,21,0.00
2013-4-25,69.3,56.5,36.8,59.5,41.1,20.9,87,60,24,30.23,29.96,13,2,13,0.00
2013-4-26,69.3,54.0,33.2,43.5,36.9,21.8,97,57,29,30.38,30.23,14,1,14,0.00
2013-4-27,67.0,58.6,52.3,53.5,47.2,39.7,94,67,52,30.30,30.20,9,0,9,0.00
2013-4-28,55.9,52.7,50.8,55.5,52.4,50.8,100,99,94,30.21,30.02,13,0,13,0.95
2013-4-29,67.2,57.9,49.3,64.7,57.2,47.6,100,98,90,30.00,29.92,8,0,8,0.36
2013-4-30,65.2,55.1,47.0,62.2,54.3,45.1,100,97,84,30.15,29.97,12,1,12,0.00
2013-5-1,62.4,53.0,49.1,59.9,52.8,45.1,100,99,93,30.27,30.13,16,2,16,0.00
2013-5-2,53.9,51.9,49.7,53.5,51.7,49.6,100,99,96,30.29,30.21,12,2,16,0.00
2013-5-3,65.0,55.0,44.0,55.8,50.0,40.7,100,84,64,30.22,30.11,19,3,19,0.00
2013-5-4,56.2,49.9,43.7,52.0,47.5,41.6,100,92,72,30.15,30.02,21,4,21,0.00
2013-5-5,52.8,51.8,51.7,51.1,50.8,50.6,96,96,96,30.05,30.04,12,7,21,0.00
2013-5-6,65.3,57.9,51.1,64.5,57.6,51.1,100,99,94,29.87,29.78,11,1,122,1.76
2013-5-7,67.8,56.1,50.9,60.2,53.5,43.6,100,92,53,29.90,29.80,12,1,12,0.04
2013-5-8,67.3,55.7,43.5,62.0,54.2,39.2,100,95,77,29.96,29.87,11,0,11,0.24
2013-5-9,52.8,50.1,47.7,52.3,50.1,47.3,100,100,100,29.95,29.93,0,0,0,0.00
2013-5-12,68.2,59.7,31.9,55.1,42.1,18.1,98,54,33,29.99,29.84,18,4,18,0.01
2013-5-13,64.3,52.1,36.3,41.5,36.2,27.3,92,58,30,30.13,29.98,17,2,17,0.00
2013-5-14,70.1,54.0,30.1,44.0,39.0,27.3,100,62,35,30.20,30.00,14,1,14,0.00
2013-5-15,82.5,61.7,49.5,60.0,50.0,37.6,85,67,39,30.01,29.91,15,1,15,0.00
2013-5-16,80.0,74.4,65.9,60.2,56.9,50.2,73,55,43,29.96,29.91,14,2,14,0.00
2013-5-17,83.9,72.2,55.9,65.9,59.8,49.7,100,69,40,30.05,29.95,12,0,12,0.00
2013-5-18,72.3,65.9,53.0,69.0,64.5,51.9,100,95,84,30.13,30.03,9,0,9,0.04
2013-5-19,67.7,66.9,66.0,67.5,66.9,65.8,100,100,100,30.07,30.03,9,1,9,0.40
2013-5-20,75.9,67.0,54.5,72.7,66.7,54.1,100,99,82,30.07,29.99,16,0,16,0.82
2013-5-21,84.1,71.8,61.5,73.0,67.7,60.9,100,89,54,30.01,29.91,11,1,11,0.00
2013-5-22,79.8,69.8,52.8,70.3,64.5,52.3,100,85,58,29.99,29.87,16,2,16,0.25
2013-5-23,75.9,64.6,44.2,70.8,63.1,43.6,100,95,75,29.92,29.78,15,1,15,0.36
2013-5-24,65.7,58.1,43.3,61.0,48.6,31.5,100,74,43,30.15,29.80,20,3,20,0.00
2013-5-25,71.5,55.7,41.8,44.6,40.0,28.7,100,61,30,30.23,30.09,14,2,14,0.00
2013-5-26,71.8,59.6,49.4,53.7,46.3,33.3,91,64,40,30.23,30.12,14,1,14,0.00
2013-5-27,76.2,64.5,46.9,59.9,51.6,35.1,100,66,42,30.23,30.11,13,1,13,0.00
2013-5-28,78.2,69.5,59.6,67.3,60.9,45.1,100,77,49,30.20,30.11,15,2,15,0.00
2013-5-29,79.2,70.5,48.9,66.1,60.6,42.0,99,73,44,30.20,30.12,13,2,13,0.00
2013-5-30,81.0,71.3,53.0,67.6,61.2,41.8,100,74,38,30.24,30.15,13,1,13,0.00
2013-5-31,82.2,72.7,61.3,71.6,63.7,51.7,100,76,47,30.19,30.08,12,1,12,0.00
2013-6-1,81.4,74.1,60.3,70.2,63.2,34.7,100,72,43,30.09,29.99,16,2,16,0.00
2013-6-2,79.2,70.6,60.3,70.4,65.9,58.0,100,86,59,30.01,29.87,14,2,14,0.06
2013-6-3,70.4,64.5,48.6,70.2,64.5,44.2,100,100,100,29.93,29.85,11,0,11,0.63
2013-6-4,72.6,65.8,59.7,66.7,63.6,57.0,100,93,72,30.06,29.92,12,1,12,0.00
2013-6-5,70.5,65.0,52.4,68.5,63.2,49.4,100,94,72,30.10,29.98,10,0,10,0.01
2013-6-6,70.9,64.7,51.9,70.9,64.7,51.9,100,100,100,29.98,29.77,9,0,13,0.40
2013-6-7,71.9,68.4,66.1,71.9,68.4,64.4,100,100,100,29.81,29.58,9,0,10,0.10
2013-6-8,79.4,70.0,56.5,69.0,64.6,54.2,100,85,52,30.06,29.79,15,0,15,0.41
2013-6-9,81.9,71.5,61.3,72.8,66.2,46.6,100,86,54,30.12,30.02,18,1,18,0.33
2013-6-10,78.0,70.5,63.5,74.1,69.4,58.2,100,97,71,30.06,29.83,21,2,21,0.47
2013-6-11,78.8,70.5,62.3,70.9,64.4,53.3,100,83,52,29.94,29.86,15,2,15,0.00
2013-6-12,86.3,74.6,52.0,74.4,66.8,44.7,97,78,57,29.95,29.84,12,1,12,0.00
2013-6-13,91.0,74.9,66.0,74.9,67.3,53.5,100,81,42,29.85,29.58,28,3,31,0.14
2013-6-14,76.8,65.7,43.7,67.6,55.8,25.6,100,73,46,29.99,29.72,17,2,17,0.00
2013-6-15,79.7,68.0,52.1,64.7,57.1,34.3,100,72,43,30.10,29.99,12,1,12,0.00
2013-6-16,79.2,70.7,61.9,67.7,64.0,50.9,97,80,53,30.08,30.01,14,3,14,0.00
2013-6-17,76.8,69.3,63.0,73.5,68.2,45.5,100,97,81,29.99,29.97,8,0,8,0.13
2013-6-18,77.0,68.7,59.9,74.3,67.1,46.4,100,95,80,29.87,29.76,16,2,16,0.22
2013-6-19,75.5,68.3,52.0,71.2,64.4,48.3,100,89,63,30.10,29.87,10,1,16,0.01
2013-6-20,76.1,67.1,56.1,67.5,62.3,39.7,100,86,56,30.22,30.10,8,1,16,0.00
2013-6-21,76.6,66.8,52.2,63.2,56.9,36.4,100,74,46,30.25,30.16,12,1,16,0.00
2013-6-22,77.9,68.6,59.8,71.6,66.0,49.4,100,92,64,30.20,30.08,11,1,16,0.02
2013-6-23,67.7,64.4,60.9,67.6,64.4,60.5,100,100,100,30.18,30.12,0,0,16,0.00
2013-6-24,82.1,77.0,70.7,75.8,70.1,60.8,95,80,59,30.17,30.05,13,2,13,0.00
2013-6-25,83.8,72.2,62.0,74.6,68.6,58.0,100,90,56,30.10,29.98,18,1,18,0.56
2013-6-26,86.8,72.0,51.4,74.0,68.3,48.7,100,90,51,30.00,29.86,20,1,20,0.23
2013-6-27,79.8,71.3,47.5,74.0,66.4,44.3,100,86,64,29.91,29.69,16,2,20,0.00
2013-6-28,85.7,76.0,61.5,74.5,67.7,47.1,100,77,51,29.67,29.55,24,3,24,0.38
2013-6-29,76.0,67.5,49.6,71.9,67.1,49.6,100,99,76,29.65,29.57,7,0,24,0.05
2013-6-30,82.0,69.7,46.5,72.8,67.3,44.0,100,93,64,29.82,29.73,12,1,12,0.22
2013-7-1,79.0,69.2,42.1,73.6,67.0,42.1,100,93,75,29.96,29.80,13,1,13,0.25
2013-7-2,75.5,70.7,67.3,73.9,70.6,65.9,100,100,94,30.14,29.95,15,2,15,0.39
2013-7-3,75.5,69.7,63.0,75.5,69.7,62.7,100,100,100,30.20,30.10,10,0,10,0.03
2013-7-4,83.7,75.8,68.3,75.4,71.9,67.3,100,88,65,30.23,30.15,14,1,14,0.38
2013-7-5,83.8,74.0,66.4,75.9,70.6,62.4,100,90,62,30.23,30.14,11,1,14,0.21
2013-7-6,84.1,74.4,65.4,75.0,69.7,57.6,100,87,53,30.22,30.09,9,1,10,0.02
2013-7-7,82.7,73.2,63.0,76.4,70.5,49.3,100,92,65,30.16,30.04,14,1,14,0.06
2013-7-8,82.4,74.0,67.5,75.1,69.3,60.1,100,87,57,30.15,30.07,9,0,9,0.01
2013-7-9,84.5,76.2,69.8,76.0,71.8,62.4,100,87,60,30.13,30.02,12,1,12,0.00
2013-7-10,83.1,73.2,59.1,74.1,69.1,56.8,100,88,65,30.08,29.91,16,1,16,2.56
2013-7-11,78.5,73.8,70.7,75.9,73.1,70.7,100,98,88,29.94,29.85,8,0,8,0.05
2013-7-12,75.3,70.3,66.6,73.0,69.7,66.4,100,98,87,30.00,29.85,12,1,13,0.00
2013-7-13,76.0,70.5,53.3,75.1,70.4,47.2,100,99,96,30.13,30.00,12,1,12,0.01
2013-7-14,83.7,74.3,68.1,74.8,70.7,59.6,100,90,54,30.28,30.13,12,1,12,0.03
2013-7-15,84.1,74.7,66.6,75.3,68.6,60.1,100,84,53,30.31,30.23,8,0,8,0.00
2013-7-16,91.5,74.9,51.0,76.1,70.5,47.0,100,88,49,30.27,30.17,8,0,8,0.00
2013-7-17,88.6,79.1,73.0,76.7,72.9,58.1,100,83,51,30.22,30.09,11,1,11,0.00
2013-7-18,89.0,78.9,72.2,76.5,73.5,51.8,100,85,55,30.13,30.01,13,0,13,0.00
2013-7-19,87.4,79.2,73.1,76.6,73.1,63.4,100,83,57,30.08,29.95,13,1,13,0.00
2013-7-20,84.1,74.9,56.0,76.7,73.3,52.3,100,95,71,30.00,29.90,12,1,12,0.62
2013-7-21,80.5,73.8,69.4,75.0,72.9,69.1,100,97,79,29.97,29.91,14,1,14,0.47
2013-7-22,84.8,75.4,70.3,76.4,72.3,63.6,100,91,66,29.93,29.80,13,0,13,0.00
2013-7-23,82.8,79.9,74.9,72.2,68.3,61.1,84,68,53,29.79,29.71,12,1,13,0.00
2013-7-24,84.1,75.1,62.3,73.1,69.3,59.9,100,84,57,29.83,29.71,11,1,11,0.00
2013-7-25,77.9,69.3,57.5,70.9,66.3,54.6,100,91,70,30.01,29.83,14,1,14,0.00
2013-7-26,79.3,68.4,56.7,67.9,62.4,45.2,100,83,55,30.08,30.00,0,0,0,0.00
2013-7-28,77.3,71.2,64.5,71.5,67.7,58.3,97,89,79,29.97,29.92,0,0,0,0.00
2013-7-29,78.0,68.9,46.3,68.3,61.4,34.0,100,80,47,30.14,29.97,0,0,0,0.00
2013-7-30,80.5,69.6,59.2,70.9,63.1,47.9,100,82,50,30.20,30.12,0,0,0,0.00
2013-7-31,77.7,71.9,67.1,73.0,69.0,62.1,100,91,68,30.13,29.96,0,0,0,1.12
2013-8-1,80.4,71.7,60.1,74.1,69.7,53.4,100,94,65,29.97,29.84,0,0,0,0.03
2013-8-2,80.3,71.7,63.2,71.9,65.3,50.8,100,83,49,30.01,29.90,0,0,0,0.00
2013-8-3,81.0,70.1,60.2,74.0,68.3,58.4,100,94,72,29.99,29.90,0,0,0,0.00
2013-8-4,79.7,71.3,48.0,71.1,64.5,47.8,100,82,46,30.01,29.88,0,0,0,0.00
2013-8-5,78.1,68.1,45.4,68.4,62.6,45.1,100,84,61,30.06,29.97,0,0,0,0.00
2013-8-6,76.0,68.0,55.4,71.2,66.0,52.6,100,94,81,30.03,29.96,0,0,0,0.74
2013-8-7,79.7,71.1,56.7,73.1,66.8,56.3,100,87,61,30.07,30.00,0,0,0,0.00
2013-8-8,79.7,71.4,64.0,73.4,69.1,63.5,100,93,71,30.05,29.98,0,0,0,0.00
2013-8-9,85.0,77.6,70.2,76.2,72.6,62.8,100,86,63,30.02,29.96,0,0,0,0.00
2013-8-11,86.5,82.1,72.1,75.9,71.9,67.0,93,72,57,30.04,30.00,0,0,0,0.00
2013-8-12,85.0,77.5,60.4,73.4,67.6,49.7,100,73,49,30.03,29.92,0,0,0,0.09
2013-8-13,81.1,71.7,65.4,75.2,70.4,55.9,100,96,76,29.94,29.80,0,0,0,0.04
2013-8-14,71.6,66.6,59.8,65.4,60.7,53.4,100,83,55,30.05,29.84,0,0,0,0.00
2013-8-15,71.5,62.4,54.5,62.1,57.0,46.2,100,85,55,30.14,30.05,0,0,0,0.00
2013-8-16,69.3,60.9,51.7,65.3,59.3,49.9,100,95,78,30.15,30.07,0,0,0,0.00
2013-8-17,63.4,58.8,51.1,63.4,58.8,48.5,100,100,100,30.16,30.10,0,0,0,0.97
2013-8-18,70.8,64.7,51.1,68.7,64.1,45.1,100,98,90,30.19,30.09,0,0,0,0.00
2013-8-19,63.0,60.9,55.8,62.7,60.9,55.8,100,100,100,30.17,30.13,0,0,0,0.04
2013-8-20,76.0,71.1,65.6,72.0,69.8,65.5,100,96,86,30.16,30.10,0,0,0,0.01
2013-8-21,78.3,70.5,59.8,75.8,70.1,56.0,100,99,84,30.20,30.07,0,0,0,1.85
2013-8-22,81.5,73.4,68.0,73.7,70.2,54.6,100,91,56,30.12,30.03,0,0,0,0.00
2013-8-23,77.1,69.5,62.2,70.2,66.6,49.9,100,91,69,30.08,29.92,0,0,0,0.01
2013-8-24,77.2,65.6,44.5,64.8,59.5,42.9,100,83,49,30.28,30.08,0,0,0,0.00
2013-8-25,73.8,62.0,40.4,66.5,57.0,34.9,100,86,51,30.37,30.26,0,0,0,0.01
2013-8-26,79.3,64.7,51.3,65.0,56.9,36.8,100,79,43,30.29,30.08,0,0,0,0.02
2013-8-27,84.5,71.9,57.2,72.8,67.1,47.2,100,86,59,30.10,29.95,0,0,0,0.00
2013-8-28,80.8,72.5,49.5,75.4,69.7,47.6,100,91,70,29.98,29.86,0,0,0,0.00
2013-8-29,81.3,74.3,53.3,74.4,70.8,50.6,100,90,69,30.00,29.83,0,0,0,0.00
2013-8-30,80.8,69.3,50.3,72.2,63.7,37.5,100,85,48,30.05,29.91,0,0,0,0.00
2013-8-31,82.6,74.4,65.9,73.1,69.0,58.0,100,84,64,29.93,29.84,0,0,0,0.01
2013-9-1,83.4,70.8,43.7,76.0,69.2,43.7,100,95,67,29.88,29.77,0,0,0,0.48
2013-9-2,83.5,73.2,51.4,75.5,69.4,48.9,100,89,61,29.87,29.78,0,0,0,0.01
2013-9-3,83.7,74.2,66.1,73.3,69.4,54.8,100,86,57,29.94,29.78,0,0,0,0.00
2013-9-4,78.5,66.2,55.3,66.4,62.4,44.3,100,89,62,30.07,29.93,0,0,0,0.00
2013-9-5,83.3,71.4,55.1,66.2,58.9,41.5,100,69,38,30.09,30.01,0,0,0,0.00
2013-9-6,76.3,63.8,50.4,61.5,56.5,34.5,100,80,52,30.18,30.07,0,0,0,0.00
2013-9-7,76.9,65.5,53.1,66.8,60.7,44.9,100,86,60,30.11,29.95,0,0,0,0.05
2013-9-8,83.3,71.9,61.9,68.3,65.2,54.0,100,82,55,29.95,29.89,0,0,0,0.00
2013-9-9,81.1,74.0,57.8,73.5,68.0,54.0,100,83,54,30.11,30.04,0,0,0,0.00
2013-9-10,82.1,78.7,76.1,66.1,64.1,60.4,62,61,58,30.17,30.15,0,0,0,0.00
2013-9-11,85.9,75.7,60.9,71.4,66.6,50.7,99,76,51,30.17,30.04,0,0,0,0.01
2013-9-12,83.3,72.2,48.9,71.3,67.3,43.8,100,86,58,30.04,29.80,0,0,0,0.00
2013-9-13,78.7,68.8,47.7,68.7,59.9,26.8,100,76,45,29.89,29.75,0,0,0,0.00
2013-9-14,70.7,60.3,52.7,54.8,52.0,43.9,97,76,51,30.04,29.89,0,0,0,0.00
2013-9-15,77.1,63.3,40.5,62.5,55.7,38.5,100,79,52,30.20,30.09,0,0,0,0.06
2013-9-16,79.0,66.9,45.8,67.2,60.6,39.0,100,82,48,30.17,30.04,0,0,0,0.00
2013-9-17,71.3,59.8,46.0,60.2,53.6,30.9,100,82,53,30.29,30.17,0,0,0,0.00
2013-9-18,69.5,57.7,46.3,56.7,52.9,33.7,100,85,58,30.28,30.14,0,0,0,0.02
2013-9-19,71.8,61.9,47.3,64.5,58.1,44.0,100,88,64,30.15,30.05,0,0,0,0.00
2013-9-20,72.8,66.0,45.3,70.0,65.4,42.5,100,98,90,30.05,29.92,0,0,0,0.08
2013-9-21,74.7,64.8,44.5,71.6,64.5,43.8,100,99,89,29.92,29.70,0,0,0,0.22
2013-9-22,72.9,60.7,51.1,60.2,55.8,43.9,100,86,52,29.88,29.70,0,0,0,0.33
2013-9-23,68.9,56.7,38.6,58.7,51.5,31.3,100,85,59,30.04,29.88,0,0,0,0.31
2013-9-24,71.8,62.3,50.6,61.5,56.2,32.6,100,82,53,30.05,29.91,0,0,0,0.51
2013-9-25,66.4,57.7,45.3,64.5,57.1,40.0,100,98,90,29.92,29.85,0,0,0,0.09
2013-9-26,69.5,60.8,48.5,63.3,57.0,39.2,100,89,56,29.95,29.86,0,0,0,0.01
2013-9-27,71.5,61.3,32.1,60.9,53.0,28.6,100,76,55,30.16,30.08,0,0,0,0.20
2013-9-28,67.1,55.7,44.5,57.9,52.6,34.3,100,91,62,30.23,30.14,0,0,0,0.33
2013-9-29,66.8,54.6,40.7,58.2,50.9,32.7,100,89,57,30.15,30.01,0,0,0,0.28
2013-9-30,72.8,58.5,49.5,59.7,53.6,36.5,100,86,51,30.06,29.96,0,0,0,0.03
2013-10-1,78.7,64.2,53.4,63.0,57.7,37.1,100,82,46,30.08,30.00,0,0,0,0.00
2013-10-2,78.0,61.9,48.7,63.3,54.8,36.2,100,81,45,30.11,30.02,0,0,0,0.00
2013-10-3,79.0,67.3,43.5,67.2,60.0,35.8,100,80,47,30.10,30.03,0,0,0,0.40
2013-10-4,80.2,67.0,53.6,66.2,59.6,34.1,100,80,45,30.11,30.03,0,0,0,0.03
2013-10-5,84.3,67.8,39.3,67.4,60.1,29.0,100,80,46,30.10,30.01,0,0,0,0.00
2013-10-6,80.9,68.5,46.3,67.3,61.5,37.9,100,81,50,30.02,29.89,0,0,0,0.16
2013-10-7,70.0,64.2,52.1,69.8,63.3,47.8,100,97,85,29.99,29.79,0,0,0,0.73
2013-10-8,61.6,53.5,11.9,51.6,47.4,1.8,97,80,60,30.18,29.98,0,0,0,0.16
2013-10-9,65.5,54.7,39.6,54.2,49.7,33.3,96,84,54,30.17,30.08,0,0,0,0.00
2013-10-10,63.4,57.8,51.3,62.2,57.2,49.7,100,98,92,30.08,29.92,0,0,0,0.31
2013-10-11,68.5,61.6,53.6,65.2,60.0,49.8,100,95,79,29.94,29.88,0,0,0,0.03
2013-10-12,63.1,58.2,50.9,62.8,58.0,49.3,100,99,94,30.06,29.93,0,0,0,0.05
2013-10-13,63.7,59.2,55.2,63.6,59.2,54.3,100,100,100,30.19,30.06,0,0,0,0.60
2013-10-14,62.7,58.8,55.2,62.5,58.8,54.6,100,100,97,30.22,30.15,0,0,0,0.05
2013-10-15,66.9,57.5,42.1,59.3,53.6,33.5,100,88,52,30.18,30.03,0,0,0,0.00
2013-10-16,71.8,61.3,46.9,62.8,58.2,37.0,100,91,62,30.04,29.91,0,0,0,0.00
2013-10-17,64.7,60.6,51.8,64.0,60.2,51.4,100,99,91,29.93,29.80,0,0,0,0.08
2013-10-18,67.3,55.2,38.0,60.9,50.3,30.2,100,86,53,30.01,29.85,0,0,0,0.00
2013-10-19,55.8,52.4,47.0,55.8,52.4,46.2,100,100,100,29.94,29.78,0,0,0,0.10
2013-10-22,59.3,55.8,51.0,58.3,55.6,49.1,100,99,96,29.79,29.75,0,0,0,0.01
2013-10-23,60.9,51.7,41.9,53.6,43.7,24.6,100,77,42,29.96,29.66,0,0,0,0.00
2013-10-24,53.1,43.7,35.8,39.9,35.5,27.6,98,75,49,30.12,29.96,0,0,0,0.02
2013-10-25,50.7,42.4,34.4,39.6,34.7,25.2,100,76,45,30.31,30.12,0,0,0,0.00
2013-10-26,55.5,41.8,26.8,37.2,31.5,25.2,100,71,41,30.30,30.00,0,0,0,0.00
2013-10-27,64.7,51.7,36.7,46.3,40.2,28.8,96,68,39,30.07,29.99,0,0,0,0.02
2013-10-28,66.0,52.3,42.0,54.7,48.1,39.7,100,88,55,30.21,30.05,0,0,0,0.00
2013-10-29,69.0,56.7,46.4,57.8,52.9,44.2,100,88,59,30.29,30.20,0,0,0,0.00
2013-10-30,72.3,60.1,48.3,61.7,55.5,45.1,100,86,56,30.23,30.11,0,0,0,0.00
2013-10-31,69.5,63.6,56.0,65.8,59.7,55.5,100,88,71,30.14,29.84,0,0,0,0.00
2013-11-1,68.8,64.6,56.5,66.8,63.9,56.1,100,97,90,29.84,29.61,0,0,0,0.40
2013-11-2,65.0,55.6,44.0,59.2,46.1,26.3,100,74,41,29.91,29.66,0,0,0,0.00
2013-11-3,58.2,45.2,36.0,40.8,36.5,23.7,100,75,43,30.16,29.91,0,0,0,0.00
2013-11-4,50.4,40.8,38.1,34.2,32.8,27.0,85,74,50,30.48,30.41,0,0,0,0.00
2013-11-5,55.4,44.0,33.0,50.5,40.4,31.6,100,88,67,30.50,30.38,0,0,0,0.00
2013-11-6,67.8,53.2,40.0,56.3,49.2,39.0,100,88,57,30.38,30.06,0,0,0,0.00
2013-11-7,61.7,51.2,28.2,58.8,45.3,21.4,100,82,50,30.08,29.90,0,0,0,0.00
2013-11-8,51.1,39.5,28.4,34.6,29.4,21.6,96,70,38,30.26,30.08,0,0,0,0.00
2013-11-9,54.1,42.1,28.2,36.0,30.8,19.5,100,68,39,30.30,30.12,0,0,0,0.00
2013-11-10,67.0,50.5,40.1,38.1,31.9,16.2,79,52,27,30.20,30.01,0,0,0,0.00
2013-11-11,54.4,41.0,31.2,35.1,29.7,19.7,96,67,36,30.28,30.17,0,0,0,0.00
2013-11-13,42.5,34.0,27.9,24.9,21.2,13.9,80,61,42,30.47,30.37,0,0,0,0.00
2013-11-15,57.4,50.0,41.1,48.5,39.9,22.8,100,71,40,30.28,30.14,0,0,0,0.06
2013-11-16,57.4,49.7,44.0,57.1,49.7,43.9,100,100,99,30.22,30.15,0,0,0,0.08
2013-11-17,63.7,61.2,54.6,63.4,60.9,53.4,100,99,94,30.11,29.82,0,0,0,0.05
2013-11-18,68.3,59.3,43.1,65.1,46.6,22.4,100,67,34,29.95,29.76,0,0,0,0.07
2013-11-19,50.5,41.8,30.2,30.7,27.3,16.7,68,57,40,30.24,29.94,0,0,0,0.00
2013-11-20,48.7,39.4,31.1,35.8,30.8,23.3,86,72,51,30.40,30.24,0,0,0,0.00
2013-11-21,52.9,44.7,33.7,44.9,40.8,25.6,94,86,70,30.44,30.33,0,0,0,0.00
2013-11-22,64.3,53.5,42.5,59.8,51.7,40.1,100,94,82,30.33,30.04,0,0,0,0.02
2013-11-23,57.7,48.6,31.5,57.0,38.0,9.5,100,70,38,30.14,29.99,0,0,0,0.00
2013-11-24,37.9,28.4,22.4,20.1,11.3,4.4,63,49,34,30.46,30.13,0,0,0,0.00
2013-11-25,38.2,30.1,20.2,16.7,13.0,8.1,82,50,34,30.48,30.30,0,0,0,0.00
2013-11-26,45.9,37.2,27.3,45.3,37.2,27.0,100,100,100,30.10,29.53,0,0,0,0.67
2013-11-27,43.0,35.1,27.0,43.0,31.6,19.1,100,87,68,30.10,29.43,0,0,0,0.21
2013-11-28,40.9,29.4,22.7,23.6,20.4,8.8,88,70,45,30.39,30.10,0,0,0,0.00
2013-11-29,44.2,33.9,20.3,28.0,24.5,15.7,98,70,47,30.56,30.38,0,0,0,0.00
2013-11-30,43.0,31.8,24.4,30.6,26.9,19.1,100,84,54,30.58,30.30,0,0,0,0.00
2013-12-1,27.6,27.5,27.5,27.6,27.5,27.4,100,100,100,30.30,30.30,0,0,0,0.00
2013-12-2,55.7,47.2,36.7,39.6,36.4,25.4,91,67,50,29.87,29.76,0,0,0,0.00
2013-12-3,54.7,46.3,34.1,51.4,44.1,29.6,100,92,79,29.92,29.80,0,0,0,0.02
2013-12-4,57.3,54.8,44.0,57.3,54.8,42.0,100,100,100,30.03,29.91,0,0,0,0.06
2013-12-5,64.3,60.8,56.0,64.3,60.8,56.0,100,100,100,30.05,29.95,0,0,0,0.00
2013-12-6,74.8,67.6,64.2,66.0,63.9,54.5,100,89,59,29.99,29.90,0,0,0,0.00
2013-12-7,67.7,44.1,36.6,66.0,43.1,34.8,100,96,89,30.39,29.93,0,0,0,0.54
2013-12-8,39.4,31.3,27.3,36.5,30.4,24.5,100,96,77,30.39,30.20,0,0,0,0.11
2013-12-9,41.6,36.2,29.4,41.6,36.2,29.3,100,100,100,30.21,29.99,0,0,0,0.17
2013-12-10,47.2,38.1,25.3,45.3,34.3,15.2,100,87,59,30.24,29.86,0,0,0,0.14
2013-12-11,46.1,35.1,17.5,29.2,24.4,15.2,91,66,42,30.37,30.20,0,0,0,0.00
2013-12-12,41.2,34.6,25.4,28.7,18.7,9.5,83,53,32,30.34,30.20,0,0,0,0.00
2013-12-13,48.4,39.9,25.4,31.7,25.2,8.7,81,57,36,30.30,30.18,0,0,0,0.00
2013-12-14,40.7,37.3,33.9,39.2,34.4,30.7,100,90,67,30.22,29.70,0,0,0,0.46
2013-12-15,46.7,39.1,29.4,41.5,32.4,22.9,100,78,60,30.00,29.70,0,0,0,0.00
2013-12-16,53.1,41.6,29.7,36.6,32.8,26.8,96,73,43,30.09,29.98,0,0,0,0.00
2013-12-17,59.9,45.0,27.1,37.6,33.7,22.6,94,67,41,30.04,29.80,0,0,0,0.00
2013-12-18,46.9,35.9,20.7,32.7,18.5,8.6,70,50,34,30.20,29.97,0,0,0,0.00
2013-12-19,58.9,41.1,26.5,27.9,22.5,13.6,68,49,30,30.23,30.14,0,0,0,0.00
2013-12-20,62.1,49.3,40.3,53.7,38.9,22.1,90,68,47,30.16,30.05,0,0,0,0.00
2013-12-21,68.3,64.1,56.0,64.8,61.4,50.0,97,91,74,30.00,29.96,0,0,0,0.00
2013-12-22,68.7,63.8,59.4,68.6,63.4,57.5,100,99,96,30.04,29.92,0,0,0,0.82
2013-12-23,63.2,53.3,35.0,63.2,51.8,29.5,100,95,79,30.13,29.94,0,0,0,0.25
2013-12-24,41.2,32.9,21.5,33.7,24.0,14.0,90,70,46,30.39,30.10,0,0,0,0.00
2013-12-25,36.9,26.6,20.5,17.5,14.4,7.9,80,62,39,30.47,30.34,0,0,0,0.00
2013-12-26,49.3,37.2,26.8,29.0,24.2,10.9,80,60,44,30.30,30.17,0,0,0,0.00
2013-12-27,49.2,35.7,25.9,27.2,23.2,17.2,92,63,35,30.40,30.28,0,0,0,0.00
2013-12-28,52.9,42.1,29.8,43.1,30.5,21.0,100,67,35,30.33,30.08,0,0,0,0.05
2013-12-29,52.2,44.2,39.5,50.0,43.2,39.4,100,96,83,30.09,29.66,0,0,0,0.74
2013-12-30,48.7,42.8,37.2,42.8,39.3,34.3,100,88,74,30.07,29.86,0,0,0,0.04
2013-12-31,40.4,34.9,29.3,37.7,33.8,28.0,100,96,84,30.16,30.05,0,0,0,0.07